Location: De Greiden
(52.9496°N, 5.9137°E)
Time: 22:55:38
(UTC+00:00)

Meteor 1-24 Rocket - Pass Details

Date: 24 January 2021
Orbit: 791 x 927 km, 81.3° (Epoch: 01 March)

Event Time Altitude Azimuth Distance (km) Brightness Sun altitude
Rises 17:03:02 0° 192° (SSW) 3,296 7.3 -8.5°
Reaches altitude 10° 17:05:24 10° 193° (SSW) 2,361 6.5 -8.8°
Maximum altitude 17:10:43 87° 283° (WNW) 801 3.6 -9.6°
Drops below altitude 10° 17:16:04 10° 13° (NNE) 2,377 5.8 -10.4°
Sets 17:18:28 0° 14° (NNE) 3,319 6.5 -10.7°
